Time,TemperatureF,DewpointF,PressureIn,WindDirection,WindDirectionDegrees,WindSpeedMPH,WindSpeedGustMPH,Humidity,HourlyPrecipIn,Conditions,Clouds,dailyrainin,SoftwareType,DateUTC
2013-01-28 00:04:00,10.0,7.0,30.41,North,0,0.0,-999.0,85,-99.99,,,-99.99,,2013-01-28 05:04:00,
2013-01-28 00:11:00,12.0,9.0,30.41,North,0,0.0,-999.0,85,-99.99,,,-99.99,,2013-01-28 05:11:00,
2013-01-28 00:21:00,14.0,9.0,30.40,North,0,0.0,-999.0,78,-99.99,,,-99.99,,2013-01-28 05:21:00,
2013-01-28 00:32:00,14.0,9.0,30.39,North,0,0.0,-999.0,78,-99.99,,,-99.99,,2013-01-28 05:32:00,
2013-01-28 00:42:00,16.0,9.0,30.38,North,0,0.0,-999.0,72,-99.99,,,-99.99,,2013-01-28 05:42:00,
2013-01-28 00:52:00,16.0,9.0,30.38,North,0,0.0,-999.0,72,-99.99,,,-99.99,,2013-01-28 05:52:00,
2013-01-28 01:02:00,16.0,9.0,30.38,North,0,0.0,-999.0,72,-99.99,,,-99.99,,2013-01-28 06:02:00,
2013-01-28 01:11:00,16.0,9.0,30.37,North,0,0.0,-999.0,72,-99.99,,,-99.99,,2013-01-28 06:11:00,
2013-01-28 01:22:00,16.0,9.0,30.36,North,0,0.0,-999.0,72,-99.99,,,-99.99,,2013-01-28 06:22:00,
2013-01-28 01:32:00,16.0,9.0,30.36,SE,140,3.0,-999.0,72,-99.99,,,-99.99,,2013-01-28 06:32:00,
2013-01-28 01:42:00,16.0,9.0,30.36,SE,140,3.0,-999.0,72,-99.99,,,-99.99,,2013-01-28 06:42:00,
2013-01-28 01:52:00,16.0,9.0,30.35,SSE,150,5.0,-999.0,72,-99.99,,,-99.99,,2013-01-28 06:52:00,
2013-01-28 02:02:00,16.0,9.0,30.35,SSE,150,5.0,-999.0,72,-99.99,,,-99.99,,2013-01-28 07:02:00,
2013-01-28 02:11:00,18.0,9.0,30.34,SSE,160,5.0,-999.0,67,-99.99,,,-99.99,,2013-01-28 07:11:00,
2013-01-28 02:21:00,18.0,10.0,30.34,North,0,0.0,-999.0,72,-99.99,,,-99.99,,2013-01-28 07:21:00,
2013-01-28 02:32:00,18.0,10.0,30.34,SE,140,3.0,-999.0,72,-99.99,,,-99.99,,2013-01-28 07:32:00,
2013-01-28 02:42:00,18.0,10.0,30.34,North,0,0.0,-999.0,72,-99.99,,,-99.99,,2013-01-28 07:42:00,
2013-01-28 02:51:00,18.0,10.0,30.33,SE,130,5.0,-999.0,72,-99.99,,,-99.99,,2013-01-28 07:51:00,
2013-01-28 03:01:00,18.0,10.0,30.33,SE,130,5.0,-999.0,72,-99.99,,,-99.99,,2013-01-28 08:01:00,
2013-01-28 03:11:00,19.0,10.0,30.32,ESE,120,5.0,-999.0,67,-99.99,,,-99.99,,2013-01-28 08:11:00,
2013-01-28 03:21:00,19.0,10.0,30.32,SE,140,6.0,-999.0,67,-99.99,,,-99.99,,2013-01-28 08:21:00,
2013-01-28 03:32:00,19.0,10.0,30.31,SE,140,6.0,-999.0,67,-99.99,,,-99.99,,2013-01-28 08:32:00,
2013-01-28 03:42:00,19.0,10.0,30.31,SE,140,7.0,-999.0,67,-99.99,,,-99.99,,2013-01-28 08:42:00,
2013-01-28 03:52:00,19.0,10.0,30.31,ESE,120,7.0,-999.0,67,-99.99,,,-99.99,,2013-01-28 08:52:00,
2013-01-28 04:02:00,19.0,10.0,30.31,ESE,120,7.0,-999.0,67,-99.99,,,-99.99,,2013-01-28 09:02:00,
2013-01-28 04:11:00,21.0,10.0,30.30,SE,140,3.0,-999.0,62,-99.99,,,-99.99,,2013-01-28 09:11:00,
2013-01-28 04:22:00,21.0,12.0,30.29,SE,130,5.0,-999.0,67,-99.99,,,-99.99,,2013-01-28 09:22:00,
2013-01-28 04:32:00,21.0,12.0,30.29,SE,130,7.0,-999.0,67,-99.99,,,-99.99,,2013-01-28 09:32:00,
2013-01-28 04:42:00,23.0,12.0,30.29,SE,140,7.0,-999.0,62,-99.99,,,-99.99,,2013-01-28 09:42:00,
2013-01-28 04:52:00,23.0,12.0,30.28,SE,140,6.0,-999.0,62,-99.99,,,-99.99,,2013-01-28 09:52:00,
2013-01-28 05:02:00,23.0,12.0,30.28,SE,140,6.0,-999.0,62,-99.99,,,-99.99,,2013-01-28 10:02:00,
2013-01-28 05:11:00,25.0,12.0,30.28,SSE,150,6.0,-999.0,58,-99.99,,,-99.99,,2013-01-28 10:11:00,
2013-01-28 05:21:00,25.0,12.0,30.28,SE,140,6.0,-999.0,58,-99.99,,,-99.99,,2013-01-28 10:21:00,
2013-01-28 05:32:00,25.0,14.0,30.27,SE,140,6.0,-999.0,63,-99.99,,,-99.99,,2013-01-28 10:32:00,
2013-01-28 05:42:00,25.0,14.0,30.26,SSE,150,5.0,-999.0,63,-99.99,,,-99.99,,2013-01-28 10:42:00,
2013-01-28 05:51:00,25.0,14.0,30.26,SSE,150,7.0,-999.0,63,-99.99,,,-99.99,,2013-01-28 10:51:00,
2013-01-28 06:02:00,25.0,14.0,30.26,SSE,150,7.0,-999.0,63,-99.99,,,-99.99,,2013-01-28 11:02:00,
2013-01-28 06:11:00,25.0,14.0,30.26,SE,140,6.0,-999.0,63,-99.99,,,-99.99,,2013-01-28 11:11:00,
2013-01-28 06:22:00,25.0,16.0,30.26,SSE,150,7.0,-999.0,68,-99.99,,,-99.99,,2013-01-28 11:22:00,
2013-01-28 06:32:00,25.0,14.0,30.26,SSE,160,9.0,-999.0,63,-99.99,,,-99.99,,2013-01-28 11:32:00,
2013-01-28 06:42:00,25.0,14.0,30.26,SSE,160,7.0,-999.0,63,-99.99,,,-99.99,,2013-01-28 11:42:00,
2013-01-28 06:52:00,25.0,16.0,30.25,SSE,150,8.0,-999.0,68,-99.99,,,-99.99,,2013-01-28 11:52:00,
2013-01-28 07:03:00,25.0,16.0,30.25,SSE,150,8.0,-999.0,68,-99.99,,,-99.99,,2013-01-28 12:03:00,
2013-01-28 07:12:00,27.0,16.0,30.24,SSE,150,7.0,-999.0,63,-99.99,,,-99.99,,2013-01-28 12:12:00,
2013-01-28 07:23:00,27.0,16.0,30.23,SE,130,7.0,-999.0,63,-99.99,,,-99.99,,2013-01-28 12:23:00,
2013-01-28 07:33:00,27.0,16.0,30.23,SSE,150,6.0,-999.0,63,-99.99,,,-99.99,,2013-01-28 12:33:00,
2013-01-28 07:42:00,27.0,16.0,30.23,SSE,160,7.0,-999.0,63,-99.99,,,-99.99,,2013-01-28 12:42:00,
2013-01-28 07:52:00,27.0,16.0,30.22,SSE,150,8.0,-999.0,63,-99.99,,,-99.99,,2013-01-28 12:52:00,
2013-01-28 08:03:00,27.0,16.0,30.22,SSE,150,8.0,-999.0,63,-99.99,,,-99.99,,2013-01-28 13:03:00,
2013-01-28 08:12:00,27.0,16.0,30.20,South,170,9.0,-999.0,63,-99.99,,,-99.99,,2013-01-28 13:12:00,
2013-01-28 08:23:00,27.0,16.0,30.19,South,180,9.0,-999.0,63,-99.99,,,-99.99,,2013-01-28 13:23:00,
2013-01-28 08:33:00,27.0,16.0,30.20,South,190,9.0,-999.0,63,-99.99,,,-99.99,,2013-01-28 13:33:00,
2013-01-28 08:42:00,27.0,18.0,30.20,South,170,13.0,-999.0,68,-99.99,,,-99.99,,2013-01-28 13:42:00,
2013-01-28 08:52:00,27.0,19.0,30.19,South,180,12.0,16.0,73,-99.99,,,-99.99,,2013-01-28 13:52:00,
2013-01-28 09:03:00,27.0,19.0,30.19,South,180,12.0,16.0,73,-99.99,,,-99.99,,2013-01-28 14:03:00,
2013-01-28 09:12:00,27.0,21.0,30.17,South,170,10.0,-999.0,79,-99.99,,,-99.99,,2013-01-28 14:12:00,
2013-01-28 09:22:00,27.0,21.0,30.17,South,170,10.0,16.0,79,-99.99,,,-99.99,,2013-01-28 14:22:00,
2013-01-28 09:33:00,27.0,21.0,30.16,South,170,14.0,20.0,79,-99.99,,,-99.99,,2013-01-28 14:33:00,
2013-01-28 09:43:00,27.0,21.0,30.16,South,170,10.0,18.0,79,-99.99,,,-99.99,,2013-01-28 14:43:00,
2013-01-28 09:52:00,27.0,21.0,30.14,South,170,10.0,18.0,79,-99.99,,,-99.99,,2013-01-28 14:52:00,
2013-01-28 10:03:00,27.0,21.0,30.14,South,170,10.0,18.0,79,-99.99,,,-99.99,,2013-01-28 15:03:00,
2013-01-28 10:12:00,27.0,23.0,30.12,South,170,7.0,-999.0,86,-99.99,,,-99.99,,2013-01-28 15:12:00,
2013-01-28 10:23:00,27.0,23.0,30.12,South,170,9.0,-999.0,86,-99.99,,,-99.99,,2013-01-28 15:23:00,
2013-01-28 10:33:00,27.0,25.0,30.12,South,170,10.0,-999.0,92,-99.99,,,-99.99,,2013-01-28 15:33:00,
2013-01-28 10:43:00,27.0,25.0,30.12,South,170,10.0,16.0,92,-99.99,,,-99.99,,2013-01-28 15:43:00,
2013-01-28 10:52:00,28.0,25.0,30.11,South,170,12.0,16.0,86,-99.99,,,-99.99,,2013-01-28 15:52:00,
2013-01-28 11:04:00,28.0,25.0,30.11,South,170,12.0,16.0,86,-99.99,,,-99.99,,2013-01-28 16:04:00,
2013-01-28 11:12:00,28.0,25.0,30.10,South,170,10.0,-999.0,86,-99.99,,,-99.99,,2013-01-28 16:12:00,
2013-01-28 11:22:00,28.0,25.0,30.09,South,170,8.0,18.0,86,-99.99,,,-99.99,,2013-01-28 16:22:00,
2013-01-28 11:32:00,28.0,25.0,30.08,South,170,10.0,-999.0,86,-99.99,,,-99.99,,2013-01-28 16:32:00,
2013-01-28 11:43:00,28.0,25.0,30.07,South,170,12.0,-999.0,86,-99.99,,,-99.99,,2013-01-28 16:43:00,
2013-01-28 11:52:00,28.0,25.0,30.05,South,170,14.0,21.0,86,-99.99,,,-99.99,,2013-01-28 16:52:00,
2013-01-28 12:02:00,28.0,25.0,30.05,South,170,14.0,21.0,86,-99.99,,,-99.99,,2013-01-28 17:02:00,
2013-01-28 12:12:00,28.0,25.0,30.03,South,180,13.0,18.0,86,-99.99,,,-99.99,,2013-01-28 17:12:00,
2013-01-28 12:23:00,30.0,25.0,30.02,South,170,12.0,18.0,80,-99.99,,,-99.99,,2013-01-28 17:23:00,
2013-01-28 12:32:00,30.0,25.0,30.02,South,180,10.0,21.0,80,-99.99,,,-99.99,,2013-01-28 17:32:00,
2013-01-28 12:42:00,30.0,25.0,30.01,South,180,15.0,22.0,80,-99.99,,,-99.99,,2013-01-28 17:42:00,
2013-01-28 12:52:00,30.0,27.0,30.00,South,170,14.0,18.0,86,-99.99,,,-99.99,,2013-01-28 17:52:00,
2013-01-28 13:03:00,30.0,27.0,30.00,South,170,14.0,18.0,86,-99.99,,,-99.99,,2013-01-28 18:03:00,
2013-01-28 13:12:00,30.0,27.0,29.99,South,180,10.0,-999.0,86,-99.99,,,-99.99,,2013-01-28 18:12:00,
2013-01-28 13:23:00,30.0,27.0,29.99,South,170,9.0,-999.0,86,-99.99,,,-99.99,,2013-01-28 18:23:00,
2013-01-28 13:33:00,30.0,27.0,29.98,South,170,9.0,-999.0,86,-99.99,,,-99.99,,2013-01-28 18:33:00,
2013-01-28 13:42:00,30.0,27.0,29.98,South,170,10.0,16.0,86,-99.99,,,-99.99,,2013-01-28 18:42:00,
2013-01-28 13:52:00,30.0,28.0,29.97,South,170,9.0,-999.0,92,-99.99,,,-99.99,,2013-01-28 18:52:00,
2013-01-28 14:02:00,30.0,28.0,29.97,South,170,9.0,-999.0,92,-99.99,,,-99.99,,2013-01-28 19:02:00,
2013-01-28 14:12:00,30.0,28.0,29.96,South,170,9.0,-999.0,92,-99.99,,,-99.99,,2013-01-28 19:12:00,
2013-01-28 14:22:00,32.0,28.0,29.95,SSE,160,10.0,-999.0,86,-99.99,,,-99.99,,2013-01-28 19:22:00,
2013-01-28 14:33:00,32.0,28.0,29.95,South,170,7.0,-999.0,86,-99.99,,,-99.99,,2013-01-28 19:33:00,
2013-01-28 14:42:00,32.0,28.0,29.95,SSE,160,8.0,-999.0,86,-99.99,,,-99.99,,2013-01-28 19:42:00,
2013-01-28 14:52:00,32.0,30.0,29.94,South,180,9.0,-999.0,92,-99.99,,,-99.99,,2013-01-28 19:52:00,
2013-01-28 15:03:00,32.0,30.0,29.94,South,180,9.0,-999.0,92,-99.99,,,-99.99,,2013-01-28 20:03:00,
2013-01-28 15:12:00,32.0,30.0,29.94,South,170,8.0,-999.0,92,-99.99,,,-99.99,,2013-01-28 20:12:00,
2013-01-28 15:22:00,34.0,30.0,29.94,South,180,7.0,-999.0,86,-99.99,,,-99.99,,2013-01-28 20:22:00,
2013-01-28 15:33:00,34.0,30.0,29.92,South,170,10.0,-999.0,86,-99.99,,,-99.99,,2013-01-28 20:33:00,
2013-01-28 15:42:00,34.0,30.0,29.93,South,180,7.0,-999.0,86,-99.99,,,-99.99,,2013-01-28 20:42:00,
2013-01-28 15:52:00,34.0,30.0,29.92,South,180,10.0,-999.0,86,-99.99,,,-99.99,,2013-01-28 20:52:00,
2013-01-28 16:03:00,34.0,30.0,29.92,South,180,10.0,-999.0,86,-99.99,,,-99.99,,2013-01-28 21:03:00,
2013-01-28 16:12:00,34.0,30.0,29.91,South,180,9.0,-999.0,86,-99.99,,,-99.99,,2013-01-28 21:12:00,
2013-01-28 16:22:00,34.0,30.0,29.92,South,180,9.0,-999.0,86,-99.99,,,-99.99,,2013-01-28 21:22:00,
2013-01-28 16:33:00,34.0,32.0,29.92,South,180,8.0,-999.0,93,-99.99,,,-99.99,,2013-01-28 21:33:00,
2013-01-28 16:43:00,34.0,32.0,29.91,South,180,9.0,-999.0,93,-99.99,,,-99.99,,2013-01-28 21:43:00,
2013-01-28 16:52:00,34.0,32.0,29.91,SSE,160,9.0,-999.0,93,-99.99,,,-99.99,,2013-01-28 21:52:00,
2013-01-28 17:02:00,34.0,32.0,29.91,SSE,160,9.0,-999.0,93,-99.99,,,-99.99,,2013-01-28 22:02:00,
2013-01-28 17:12:00,34.0,32.0,29.91,SSE,160,8.0,-999.0,93,-99.99,,,-99.99,,2013-01-28 22:12:00,
2013-01-28 17:23:00,34.0,32.0,29.91,South,170,6.0,-999.0,93,-99.99,,,-99.99,,2013-01-28 22:23:00,
2013-01-28 17:33:00,34.0,32.0,29.90,SSE,160,9.0,-999.0,93,-99.99,,,-99.99,,2013-01-28 22:33:00,
2013-01-28 17:42:00,34.0,32.0,29.90,SSE,160,9.0,-999.0,93,-99.99,,,-99.99,,2013-01-28 22:42:00,
2013-01-28 17:52:00,34.0,32.0,29.91,SSE,150,8.0,-999.0,93,-99.99,,,-99.99,,2013-01-28 22:52:00,
2013-01-28 18:02:00,34.0,32.0,29.91,SSE,150,8.0,-999.0,93,-99.99,,,-99.99,,2013-01-28 23:02:00,
2013-01-28 18:12:00,34.0,32.0,29.90,SSE,150,8.0,-999.0,93,-99.99,,,-99.99,,2013-01-28 23:12:00,
2013-01-28 18:22:00,36.0,32.0,29.91,SSE,160,8.0,-999.0,86,-99.99,,,-99.99,,2013-01-28 23:22:00,
2013-01-28 18:32:00,36.0,34.0,29.91,South,170,7.0,-999.0,93,-99.99,,,-99.99,,2013-01-28 23:32:00,
2013-01-28 18:42:00,36.0,32.0,29.91,SSE,160,8.0,-999.0,86,-99.99,,,-99.99,,2013-01-28 23:42:00,
2013-01-28 18:52:00,36.0,32.0,29.90,SSE,160,9.0,-999.0,86,-99.99,,,-99.99,,2013-01-28 23:52:00,
2013-01-28 19:02:00,36.0,32.0,29.90,SSE,160,9.0,-999.0,86,-99.99,,,-99.99,,2013-01-29 00:02:00,
2013-01-28 19:12:00,36.0,34.0,29.90,SSE,160,7.0,-999.0,93,-99.99,,,-99.99,,2013-01-29 00:12:00,
2013-01-28 19:22:00,36.0,34.0,29.90,South,170,8.0,-999.0,93,-99.99,,,-99.99,,2013-01-29 00:22:00,
2013-01-28 19:32:00,36.0,34.0,29.90,South,170,8.0,-999.0,93,-99.99,,,-99.99,,2013-01-29 00:32:00,
2013-01-28 19:42:00,36.0,34.0,29.90,SSE,160,7.0,-999.0,93,-99.99,,,-99.99,,2013-01-29 00:42:00,
2013-01-28 19:52:00,36.0,34.0,29.90,South,170,7.0,-999.0,93,-99.99,,,-99.99,,2013-01-29 00:52:00,
2013-01-28 20:02:00,36.0,34.0,29.90,South,170,7.0,-999.0,93,-99.99,,,-99.99,,2013-01-29 01:02:00,
2013-01-28 20:12:00,36.0,34.0,29.89,South,170,7.0,-999.0,93,-99.99,,,-99.99,,2013-01-29 01:12:00,
2013-01-28 20:23:00,36.0,34.0,29.89,South,170,7.0,-999.0,93,-99.99,,,-99.99,,2013-01-29 01:23:00,
2013-01-28 20:32:00,36.0,34.0,29.89,SSE,160,8.0,-999.0,93,-99.99,,,-99.99,,2013-01-29 01:32:00,
2013-01-28 20:42:00,36.0,34.0,29.89,SSE,160,8.0,-999.0,93,-99.99,,,-99.99,,2013-01-29 01:42:00,
2013-01-28 20:52:00,36.0,34.0,29.89,SSE,150,9.0,-999.0,93,-99.99,,,-99.99,,2013-01-29 01:52:00,
2013-01-28 21:02:00,36.0,34.0,29.89,SSE,150,9.0,-999.0,93,-99.99,,,-99.99,,2013-01-29 02:02:00,
2013-01-28 21:12:00,36.0,34.0,29.89,SE,130,7.0,-999.0,93,-99.99,,,-99.99,,2013-01-29 02:12:00,
2013-01-28 21:22:00,36.0,34.0,29.89,ESE,110,7.0,-999.0,93,-99.99,,,-99.99,,2013-01-29 02:22:00,
2013-01-28 21:33:00,36.0,34.0,29.89,ESE,120,6.0,-999.0,93,-99.99,,,-99.99,,2013-01-29 02:33:00,
2013-01-28 21:42:00,36.0,34.0,29.89,ESE,110,5.0,-999.0,93,-99.99,,,-99.99,,2013-01-29 02:42:00,
2013-01-28 21:52:00,36.0,34.0,29.89,ESE,110,6.0,-999.0,93,-99.99,,,-99.99,,2013-01-29 02:52:00,
2013-01-28 22:03:00,36.0,34.0,29.89,ESE,110,6.0,-999.0,93,-99.99,,,-99.99,,2013-01-29 03:03:00,
2013-01-28 22:12:00,36.0,36.0,29.89,SE,140,6.0,-999.0,100,-99.99,,,-99.99,,2013-01-29 03:12:00,
2013-01-28 22:22:00,36.0,36.0,29.90,SE,140,6.0,-999.0,100,-99.99,,,-99.99,,2013-01-29 03:22:00,
2013-01-28 22:32:00,36.0,36.0,29.90,SSE,150,6.0,-999.0,100,-99.99,,,-99.99,,2013-01-29 03:32:00,
2013-01-28 22:42:00,36.0,36.0,29.90,SE,140,6.0,-999.0,100,-99.99,,,-99.99,,2013-01-29 03:42:00,
2013-01-28 22:52:00,36.0,36.0,29.91,SSE,150,6.0,-999.0,100,-99.99,,,-99.99,,2013-01-29 03:52:00,
2013-01-28 23:02:00,36.0,36.0,29.91,SSE,150,6.0,-999.0,100,-99.99,,,-99.99,,2013-01-29 04:02:00,
2013-01-28 23:11:00,36.0,36.0,29.91,SSE,150,5.0,-999.0,100,-99.99,,,-99.99,,2013-01-29 04:11:00,
2013-01-28 23:22:00,36.0,36.0,29.92,SSE,160,5.0,-999.0,100,-99.99,,,-99.99,,2013-01-29 04:22:00,
2013-01-28 23:32:00,36.0,36.0,29.92,SSE,160,3.0,-999.0,100,-99.99,,,-99.99,,2013-01-29 04:32:00,
2013-01-28 23:42:00,36.0,36.0,29.92,North,0,0.0,-999.0,100,-99.99,,,-99.99,,2013-01-29 04:42:00,
2013-01-28 23:52:00,37.0,36.0,29.92,North,0,0.0,-999.0,93,-99.99,,,-99.99,,2013-01-29 04:52:00,